Biloxi, MS

2:17 PM CST on December 15, 2017 (GMT -0600)
Keesler Air Force Base

Weather History for KBIX - October, 2011

Change the Weather History Date:

Friday, October 14, 2011

  Actual Average Record
Temperature  
Mean Temperature 70 °F -  
Max Temperature 81 °F 80 °F 89 °F (1999)
Min Temperature 59 °F 58 °F 44 °F (1977)
Cooling Degree Days 5    
Growing Degree Days 20 (Base 50)    
Moisture  
Dew Point 56 °F    
Average Humidity 66    
Maximum Humidity 98    
Minimum Humidity 27    
Precipitation  
Precipitation 0.00 in - - ()
Sea Level Pressure  
Sea Level Pressure 29.96 in    
Wind  
Wind Speed 4 mph (NW)    
Max Wind Speed 9 mph    
Max Gust Speed -    
Visibility 10 miles    
Events      
Averages and records for this station are not official NWS values.
T = Trace of Precipitation, MM = Missing Value Source: NWS Daily Summary

Daily Weather History Graph

Daily Weather History Graph

Search for Another Location

Airport or City:

Trip Planner

Search our weather history database for the weather conditions in past years. The results will help you decide how hot, cold, wet, or windy it might be!

Date:

Astronomy

Oct. 14, 2011 Rise Set
Actual Time 6:57 AM CDT 6:25 PM CDT
Civil Twilight 6:32 AM CDT 6:50 PM CDT
Nautical Twilight 6:04 AM CDT 7:17 PM CDT
Astronomical Twilight 5:37 AM CDT 7:45 PM CDT
Moon 7:54 PM CDT (10/14) 9:11 AM CDT (10/14)
Length of Visible Light 12h 17m
Length of Day
11h 28m
Waning Gibbous, 94% of the Moon is Illuminated
Oct 14
Waning Gibbous
Oct 19
Last Quarter
Oct 26
New
Nov 2
First Quarter
Nov 10
Full

Hourly Weather History & Observations

Time (CDT) Temp. Heat Index Dew Point Humidity Pressure Visibility Wind Dir Wind Speed Gust Speed Precip Events Conditions
12:55 AM 64.6 °F - 58.3 °F 80% 29.88 in 10.0 mi NW 3.5 mph - N/A   Clear
1:55 AM 63.1 °F - 58.3 °F 84% 29.89 in 10.0 mi NE 3.5 mph - N/A   Clear
2:55 AM 63.3 °F - 57.9 °F 83% 29.90 in 10.0 mi North 3.5 mph - N/A   Clear
3:55 AM 61.7 °F - 58.1 °F 88% 29.91 in 10.0 mi North 3.5 mph - N/A   Clear
4:55 AM 59.7 °F - 57.7 °F 93% 29.91 in 10.0 mi Calm Calm - N/A   Clear
5:55 AM 60.8 °F - 57.4 °F 88% 29.93 in 10.0 mi North 3.5 mph - N/A   Clear
6:55 AM 61.7 °F - 58.5 °F 89% 29.95 in 10.0 mi NW 3.5 mph - N/A   Clear
7:55 AM 62.1 °F - 57.6 °F 85% 29.97 in 10.0 mi NNW 4.6 mph - N/A   Clear
8:55 AM 66.7 °F - 57.7 °F 73% 29.99 in 10.0 mi Calm Calm - N/A   Clear
9:55 AM 72.3 °F - 55.8 °F 56% 29.99 in 10.0 mi NNE 5.8 mph - N/A   Clear
10:55 AM 76.8 °F - 50.9 °F 40% 29.99 in 10.0 mi NE 6.9 mph - N/A   Clear
11:55 AM 79.3 °F - 47.5 °F 33% 29.99 in 10.0 mi NE 8.1 mph - N/A   Clear
12:55 PM 81.7 °F - 44.4 °F 27% 29.97 in 10.0 mi ENE 8.1 mph - N/A   Clear
1:55 PM 80.8 °F 80.5 °F 54.5 °F 40% 29.96 in 10.0 mi Variable 6.9 mph - N/A   Clear
2:55 PM 79.7 °F - 53.4 °F 40% 29.95 in 10.0 mi SSW 8.1 mph - N/A   Clear
3:55 PM 78.8 °F - 53.8 °F 42% 29.95 in 10.0 mi SW 9.2 mph - N/A   Clear
4:55 PM 77.0 °F - 55.4 °F 47% 29.96 in 10.0 mi SSW 8.1 mph - N/A   Clear
5:55 PM 74.3 °F - 55.6 °F 52% 29.97 in 10.0 mi SSW 5.8 mph - N/A   Clear
6:55 PM 70.7 °F - 55.8 °F 59% 29.98 in 10.0 mi SW 3.5 mph - N/A   Clear
7:55 PM 69.3 °F - 56.7 °F 64% 29.99 in 10.0 mi SW 3.5 mph - N/A   Clear
8:55 PM 69.6 °F - 57.4 °F 65% 30.00 in 10.0 mi WSW 3.5 mph - N/A   Clear
9:55 PM 67.8 °F - 60.3 °F 77% 30.01 in 10.0 mi Calm Calm - N/A   Clear
10:55 PM 64.8 °F - 60.3 °F 85% 30.03 in 10.0 mi Calm Calm - N/A   Clear
11:55 PM 64.4 °F - 63.9 °F 98% 30.04 in 10.0 mi Calm Calm - N/A   Clear